Flag for U.S.A. Weather past 2 weeks in Aurora, Illinois, U.S.A.

Now
25 °F

Overcast.


Feels Like: 16 °F
Forecast: 22 / 36 °F
Wind: 8 mph from Southeast

Location: Dupage Airport

Current Time: Mar 2, 2015 at 11:20:10 PM

Latest Report: Mar 2, 2015 at 10:52 PM


Visibility: 9 mi

Pressure: 30.28 "Hg

Humidity: 69%

Dew point: 16 °F

Location of AuroraLocation

Historic Weather in Aurora — Graph

°F

Aurora temperature yesterday

Maximum temperature yesterday: 24 °F (at 2:52 PM)
Minimum temperature yesterday: 12 °F (at 2:52 AM)
Average temperature yesterday: 18 °F

Past Weeks' High & Low Weather Summary

 TemperatureHumidityPressure
High31 °F (Feb 21, 1:52 PM)96% (Mar 1, 8:52 AM)30.76 "Hg (Mar 1, 8:52 AM)
Low-12 °F (Feb 28, 4:52 AM)28% (Feb 16, 1:52 PM)29.68 "Hg (Feb 24, 4:52 PM)
Average12 °F65%30.26 "Hg
* Reported Feb 15 9:52 PM — Mar 2 9:52 PM, Aurora, Weather by CustomWeather, © 2015

Note: Actual official high and low records may vary slightly from our data, if they occured in-between our weather recording intervals... More about our weather records

Advertising

Aurora weather history for previous 24 hours

 ConditionsComfort  
Time TempWeatherWind HumidityBarometerVisibility
9:52 PM
Mon, Mar 2
24 °FOvercast.6 mph71%30.32 "Hg9 mi
8:52 PM25 °FOvercast.9 mph66%30.33 "Hg10 mi
7:52 PM25 °FOvercast.5 mph66%30.37 "Hg10 mi
6:52 PM26 °FPassing clouds.8 mph63%30.39 "Hg10 mi
5:52 PM27 °FOvercast.6 mph61%30.39 "Hg10 mi
4:52 PM28 °FScattered clouds.8 mph56%30.42 "Hg10 mi
3:52 PM30 °FSunny.No wind47%30.43 "Hg10 mi
2:52 PM30 °FSunny.6 mph49%30.45 "Hg10 mi
1:52 PM29 °FSunny.No wind51%30.47 "Hg10 mi
12:52 PM29 °FSunny.No wind47%30.50 "Hg10 mi
11:52 AM28 °FSunny.5 mph49%30.53 "Hg10 mi
10:52 AM27 °FSunny.5 mph53%30.55 "Hg10 mi
9:52 AM24 °FSunny.6 mph60%30.54 "Hg10 mi
8:52 AM20 °FSunny.8 mph68%30.54 "Hg10 mi
7:52 AM15 °FSunny.7 mph77%30.53 "Hg10 mi
6:52 AM11 °FSunny.6 mph81%30.51 "Hg8 mi
5:52 AM11 °FClear.5 mph81%30.50 "Hg10 mi
4:52 AM12 °FClear.5 mph77%30.48 "Hg10 mi
3:52 AM16 °FClear.10 mph71%30.46 "Hg10 mi
2:52 AM13 °FClear.10 mph74%30.45 "Hg10 mi
1:52 AM14 °FClear.10 mph73%30.44 "Hg10 mi
12:52 AM13 °FClear.10 mph70%30.43 "Hg10 mi
11:52 PM
Sun, Mar 1
17 °FClear.12 mph68%30.40 "Hg10 mi
Weather by CustomWeather, © 2015

See weather overviewHow to use our weather pages